Regional Weather Roundup
Issued by NWS Green Bay, WI

Home | Current Version | Previous Version | Graphics & Text | Print | Product List | Glossary Off
Versions: 1 2 3 4 5 6 7 8 9 10 11 12 13 14 15 16 17 18 19 20 21 22 23 24 25 26 27 28 29 30 31 32 33 34 35 36 37 38 39 40 41 42 43 44 45 46 47 48 49 50

000
ASUS43 KGRB 221510
RWRGRB

NORTH-CENTRAL AND NORTHEAST WISCONSIN REGIONAL WEATHER ROUNDUP
NATIONAL WEATHER SERVICE GREEN BAY WI
1000 AM CDT WED OCT 22 2014

WIZ005-009-010>012-018-019-221600-
NORTH CENTRAL WISCONSIN

CITY           SKY/WX    TMP DP  RH WIND       PRES   REMARKS
IRONWOOD       NOT AVBL
MANITOWISH WTR NOT AVBL
ARBOR VITAE    NOT AVBL
EAGLE RIVER    NOT AVBL
LAND O LAKES   NOT AVBL
RHINELANDER    NOT AVBL
PHILLIPS       NOT AVBL
ANTIGO         NOT AVBL
TOMAHAWK       NOT AVBL
MERRILL        NOT AVBL
$$

WIZ013-073-221600-
NORTHEAST WISCONSIN

CITY           SKY/WX    TMP DP  RH WIND       PRES   REMARKS
IRON MOUNTAIN  NOT AVBL
MARINETTE      NOT AVBL
$$

WIZ017-030-035>037-045-221600-
CENTRAL WISCONSIN

CITY           SKY/WX    TMP DP  RH WIND       PRES   REMARKS
MEDFORD        NOT AVBL
WAUSAU         NOT AVBL
MOSINEE        NOT AVBL
MARSHFIELD     NOT AVBL
WISC RAPIDS    NOT AVBL
STEVENS POINT  NOT AVBL
WAUPACA        NOT AVBL
SHAWANO        NOT AVBL
CLINTONVILLE   NOT AVBL
$$

WIZ038-039-048-051-221600-
FOX VALLEY

CITY           SKY/WX    TMP DP  RH WIND       PRES   REMARKS
NWS GREEN BAY  NOT AVBL
APPLETON       NOT AVBL
OSHKOSH        NOT AVBL
FOND DU LAC    NOT AVBL
$$

WIZ022-050-052-221600-
EAST CENTRAL WISCONSIN

CITY           SKY/WX    TMP DP  RH WIND       PRES   REMARKS
STURGEON BAY   NOT AVBL
MANITOWOC      NOT AVBL
SHEBOYGAN      NOT AVBL
$$

LMZ563-521-522-541>543-221600-
LAKESHORE

STATION/POSITION TIME  TEMP    WIND        PRES    VSBY  WAVE
                       AIR SEA DIR/SP/G                  HT/PER
                 (UTC) (F)     (DEG/KT/KT) (MB)    (MI)  (FT/S)
SHEBOYGAN LKSHOR 1400   46 49  110/  7/  9 1029.1R
KEWAUNEE LKSHORE 1400   45      90/  3/  7 1027.8S
ALGOMA MARINA    1400          330/  6/  6   N/A
NORTHPORT PIER   1400   45     130/  8/ 11 1029.1S
N MID LAKE BUOY  1400   44 51  120/  6/  8 1029.9R         1
SISTER BAY LKSHO 1400          170/  7/  9   N/A
CHAMBERS ISLAND  1400   46     130/  4/  8 1029.1R
MENOMINEE LKSHOR 1400   40     290/  1/  2 1029.3F
$$



USA.gov is the U.S. government's official web portal to all federal, state and local government web resources and services.